Location: B�retswil
(47.3376°N, 8.8534°E)
Time: 02:09:49
(UTC+00:00)

Cosmos 2333 Rocket - Pass Details

Date: 03 March 2021
Orbit: 837 x 864 km, 70.8° (Epoch: 12 April)

Event Time Altitude Azimuth Distance (km) Brightness Sun altitude
Rises 20:31:19 0° 233° (SW) 3,395 5.6 -33.3°
Reaches altitude 10° 20:33:56 10° 241° (WSW) 2,468 4.9 -33.6°
Maximum altitude 20:39:09 37° 308° (NW) 1,306 3.5 -34.4°
Drops below altitude 10° 20:44:27 10° 15° (NNE) 2,498 4.8 -35.1°
Sets 20:47:07 0° 24° (NNE) 3,442 5.5 -35.5°
